TimePDT,TemperatureF,Dew PointF,Humidity,Sea Level PressureIn,VisibilityMPH,Wind Direction,Wind SpeedMPH,Gust SpeedMPH,PrecipitationIn,Events,Conditions,WindDirDegrees,DateUTC
12:15 AM,50.0,48.2,94,30.19,4.0,Calm,Calm,-,N/A,,Clear,0,2012-10-01 07:15:00
12:35 AM,50.0,48.2,94,30.19,3.0,Calm,Calm,-,N/A,,Clear,0,2012-10-01 07:35:00
12:55 AM,50.0,48.2,94,30.18,5.0,Calm,Calm,-,N/A,,Clear,0,2012-10-01 07:55:00
1:15 AM,51.8,50.0,94,30.18,8.0,NNW,3.5,-,N/A,,Clear,340,2012-10-01 08:15:00
1:35 AM,48.2,48.2,100,30.18,5.0,Calm,Calm,-,N/A,,Clear,0,2012-10-01 08:35:00
1:55 AM,48.2,48.2,100,30.17,4.0,NW,3.5,-,N/A,,Clear,320,2012-10-01 08:55:00
2:15 AM,48.2,48.2,100,30.17,3.0,Calm,Calm,-,N/A,,Clear,0,2012-10-01 09:15:00
2:35 AM,48.2,48.2,100,30.17,3.0,Calm,Calm,-,N/A,,Clear,0,2012-10-01 09:35:00
2:55 AM,48.2,48.2,100,30.17,4.0,Calm,Calm,-,N/A,,Clear,0,2012-10-01 09:55:00
3:15 AM,48.2,48.2,100,30.16,3.0,Calm,Calm,-,N/A,,Clear,0,2012-10-01 10:15:00
3:35 AM,46.4,46.4,100,30.16,3.0,Calm,Calm,-,N/A,,Clear,0,2012-10-01 10:35:00
3:55 AM,48.2,46.4,93,30.15,3.0,Calm,Calm,-,N/A,,Clear,0,2012-10-01 10:55:00
4:15 AM,48.2,48.2,100,30.15,6.0,Calm,Calm,-,N/A,,Clear,0,2012-10-01 11:15:00
4:35 AM,48.2,46.4,93,30.15,8.0,Calm,Calm,-,N/A,,Clear,0,2012-10-01 11:35:00
4:55 AM,46.4,46.4,100,30.15,8.0,Calm,Calm,-,N/A,,Clear,0,2012-10-01 11:55:00
5:15 AM,48.2,48.2,100,30.15,10.0,Calm,Calm,-,N/A,,Clear,0,2012-10-01 12:15:00
5:35 AM,48.2,48.2,100,30.15,10.0,Calm,Calm,-,N/A,,Clear,0,2012-10-01 12:35:00
5:55 AM,46.4,46.4,100,30.14,10.0,North,3.5,-,N/A,,Clear,10,2012-10-01 12:55:00
6:15 AM,48.2,48.2,100,30.14,10.0,NNE,3.5,-,N/A,,Clear,30,2012-10-01 13:15:00
6:35 AM,48.2,48.2,100,30.14,10.0,NNE,6.9,-,N/A,,Clear,20,2012-10-01 13:35:00
7:15 AM,48.2,48.2,100,30.14,10.0,North,5.8,-,N/A,,Clear,350,2012-10-01 14:15:00
7:35 AM,48.2,48.2,100,30.15,10.0,NE,4.6,-,N/A,,Clear,50,2012-10-01 14:35:00
8:15 AM,51.8,50.0,94,30.15,10.0,Calm,Calm,-,N/A,,Clear,0,2012-10-01 15:15:00
8:35 AM,51.8,51.8,100,30.16,10.0,Calm,Calm,-,N/A,,Clear,0,2012-10-01 15:35:00
8:55 AM,53.6,51.8,94,30.15,10.0,Calm,Calm,-,N/A,,Clear,0,2012-10-01 15:55:00
9:15 AM,55.4,51.8,88,30.15,10.0,NE,3.5,-,N/A,,Clear,40,2012-10-01 16:15:00
9:35 AM,59.0,51.8,77,30.15,10.0,NE,4.6,-,N/A,,Clear,40,2012-10-01 16:35:00
9:55 AM,62.6,51.8,68,30.15,10.0,NNE,3.5,-,N/A,,Clear,20,2012-10-01 16:55:00
10:15 AM,62.6,51.8,68,30.15,7.0,NNW,5.8,-,N/A,,Clear,330,2012-10-01 17:15:00
10:35 AM,66.2,50.0,56,30.15,10.0,NNW,5.8,-,N/A,,Clear,340,2012-10-01 17:35:00
10:55 AM,66.2,50.0,56,30.14,10.0,NNW,8.1,-,N/A,,Clear,330,2012-10-01 17:55:00
11:15 AM,68.0,50.0,52,30.14,10.0,NNW,4.6,-,N/A,,Clear,330,2012-10-01 18:15:00
11:35 AM,69.8,50.0,49,30.13,10.0,NNW,5.8,-,N/A,,Clear,340,2012-10-01 18:35:00
12:15 PM,71.6,48.2,43,30.13,10.0,NNW,10.4,-,N/A,,Clear,330,2012-10-01 19:15:00
12:55 PM,69.8,48.2,46,30.12,10.0,NNW,15.0,-,N/A,,Clear,340,2012-10-01 19:55:00
1:15 PM,66.2,48.2,52,30.12,10.0,North,18.4,-,N/A,,Clear,350,2012-10-01 20:15:00
1:35 PM,64.4,46.4,52,30.12,10.0,North,21.9,26.5,N/A,,Clear,350,2012-10-01 20:35:00
2:15 PM,66.2,44.6,46,30.10,10.0,North,19.6,27.6,N/A,,Clear,350,2012-10-01 21:15:00
2:35 PM,66.2,44.6,46,30.10,10.0,North,19.6,25.3,N/A,,Clear,350,2012-10-01 21:35:00
2:55 PM,66.2,46.4,49,30.10,10.0,North,20.7,26.5,N/A,,Clear,350,2012-10-01 21:55:00
3:15 PM,64.4,46.4,52,30.09,10.0,North,20.7,-,N/A,,Clear,350,2012-10-01 22:15:00
3:35 PM,64.4,48.2,56,30.09,10.0,North,23.0,-,N/A,,Clear,350,2012-10-01 22:35:00
4:15 PM,62.6,48.2,59,30.09,10.0,North,19.6,25.3,N/A,,Clear,350,2012-10-01 23:15:00
4:35 PM,62.6,48.2,59,30.08,10.0,North,21.9,-,N/A,,Clear,350,2012-10-01 23:35:00
4:55 PM,60.8,48.2,63,30.08,10.0,North,19.6,-,N/A,,Clear,360,2012-10-01 23:55:00
5:15 PM,60.8,50.0,68,30.08,10.0,North,18.4,-,N/A,,Clear,360,2012-10-02 00:15:00
5:35 PM,62.6,50.0,63,30.08,10.0,North,18.4,24.2,N/A,,Clear,360,2012-10-02 00:35:00
5:55 PM,60.8,50.0,68,30.09,10.0,North,16.1,-,N/A,,Clear,360,2012-10-02 00:55:00
6:15 PM,60.8,50.0,68,30.09,10.0,North,18.4,-,N/A,,Clear,360,2012-10-02 01:15:00
6:35 PM,60.8,51.8,72,30.08,10.0,North,17.3,21.9,N/A,,Clear,360,2012-10-02 01:35:00
6:55 PM,59.0,51.8,77,30.09,10.0,North,18.4,-,N/A,,Clear,360,2012-10-02 01:55:00
7:15 PM,57.2,53.6,88,30.09,10.0,North,15.0,-,N/A,,Clear,350,2012-10-02 02:15:00
7:35 PM,59.0,53.6,82,30.09,10.0,North,21.9,29.9,N/A,,Clear,350,2012-10-02 02:35:00
7:55 PM,57.2,55.4,94,30.09,10.0,North,24.2,29.9,N/A,,Clear,350,2012-10-02 02:55:00
8:15 PM,57.2,55.4,94,30.10,10.0,North,20.7,-,N/A,,Clear,350,2012-10-02 03:15:00
8:35 PM,57.2,55.4,94,30.11,10.0,North,13.8,-,N/A,,Clear,350,2012-10-02 03:35:00
8:55 PM,55.4,53.6,94,30.11,9.0,North,15.0,18.4,N/A,,Clear,360,2012-10-02 03:55:00
9:15 PM,53.6,51.8,94,30.12,10.0,North,12.7,-,N/A,,Clear,360,2012-10-02 04:15:00
9:35 PM,53.6,51.8,94,30.12,10.0,North,11.5,-,N/A,,Clear,350,2012-10-02 04:35:00
9:55 PM,53.6,51.8,94,30.13,10.0,North,11.5,-,N/A,,Partly Cloudy,350,2012-10-02 04:55:00
10:15 PM,53.6,51.8,94,30.13,8.0,North,12.7,-,N/A,,Mostly Cloudy,360,2012-10-02 05:15:00
10:35 PM,53.6,51.8,94,30.13,10.0,North,8.1,-,N/A,,Scattered Clouds,360,2012-10-02 05:35:00
11:15 PM,53.6,51.8,94,30.13,9.0,North,9.2,-,N/A,,Overcast,360,2012-10-02 06:15:00